Williams, AZ

1:26 AM MST on February 12, 2016 (GMT -0700)
Williams

Weather History for KCMR - September, 2013

Change the Weather History Date:

Saturday, September 14, 2013

  Actual Average (KFLG) Record (KFLG)
Temperature  
Mean Temperature 62 °F 58 °F  
Max Temperature 75 °F 74 °F 88 °F (2000)
Min Temperature 48 °F 43 °F 29 °F (1988)
Degree Days  
Heating Degree Days 4 7  
Month to date heating degree days 71  
Since 1 July heating degree days 159  
Cooling Degree Days 0 0  
Month to date cooling degree days 0  
Year to date cooling degree days 114  
Growing Degree Days 12 (Base 50)    
Moisture  
Dew Point 48 °F    
Average Humidity 72    
Maximum Humidity 94    
Minimum Humidity 36    
Precipitation  
Precipitation 0.38 in 0.08 in 1.50 in (1999)
Month to date precipitation 1.21  
Year to date precipitation 15.40  
Snow  
Snow 0.00 in 0.00 in 0.00 in (2002)
Month to date snowfall 0.0  
Since 1 July snowfall 0.0  
Snow Depth -    
Sea Level Pressure  
Sea Level Pressure 30.16 in    
Wind  
Wind Speed 7 mph (South)    
Max Wind Speed 17 mph    
Max Gust Speed 28 mph    
Visibility 10 miles    
Events      
T = Trace of Precipitation, MM = Missing Value Source: NWS Daily Summary

Daily Weather History Graph

Daily Weather History Graph

Search for Another Location

Airport or City:

Trip Planner

Search our weather history database for the weather conditions in past years. The results will help you decide how hot, cold, wet, or windy it might be!

Date:

Astronomy

Sep. 14, 2013 Rise Set
Actual Time 6:11 AM MST 6:36 PM MST
Civil Twilight 5:45 AM MST 7:02 PM MST
Nautical Twilight 5:15 AM MST 7:32 PM MST
Astronomical Twilight 4:45 AM MST 8:02 PM MST
Moon 3:13 PM MST (9/14) 12:55 AM MST (9/14)
Length of Visible Light 13h 16m
Length of Day
12h 25m
Waxing Gibbous, 73% of the Moon is Illuminated
Sep 14
Waxing Gibbous
Sep 19
Full
Sep 26
Last Quarter
Oct 4
New
Oct 11
First Quarter

Hourly Weather History & Observations

Time (MST) Temp. Dew Point Humidity Pressure Visibility Wind Dir Wind Speed Gust Speed Precip Events Conditions
12:15 AM 50.0 °F 46.4 °F 87% 30.16 in 10.0 mi SSE 8.1 mph - N/A   Clear
12:35 AM 50.0 °F 46.4 °F 87% 30.16 in 10.0 mi SSE 6.9 mph - N/A   Clear
12:55 AM 50.0 °F 46.4 °F 87% 30.16 in 10.0 mi SSE 5.8 mph - N/A   Clear
1:15 AM 50.0 °F 46.4 °F 87% 30.15 in 10.0 mi SSE 6.9 mph - N/A   Clear
1:35 AM 48.2 °F 46.4 °F 93% 30.15 in 10.0 mi SSE 6.9 mph - N/A   Clear
1:55 AM 48.2 °F 46.4 °F 93% 30.15 in 10.0 mi SSE 6.9 mph - N/A   Clear
2:15 AM 48.2 °F 46.4 °F 93% 30.15 in 10.0 mi SSE 5.8 mph - N/A   Clear
2:35 AM 48.2 °F 46.4 °F 93% 30.15 in 10.0 mi SSE 8.1 mph - N/A   Clear
2:55 AM 48.2 °F 44.6 °F 87% 30.14 in 10.0 mi SSE 8.1 mph - N/A   Clear
3:15 AM 48.2 °F 44.6 °F 87% 30.15 in 10.0 mi SSE 8.1 mph - N/A   Clear
3:35 AM 48.2 °F 44.6 °F 87% 30.14 in 10.0 mi SSE 8.1 mph - N/A   Clear
3:55 AM 48.2 °F 44.6 °F 87% 30.14 in 10.0 mi SSE 8.1 mph - N/A   Clear
4:15 AM 48.2 °F 44.6 °F 87% 30.14 in 10.0 mi SSE 10.4 mph - N/A   Clear
4:35 AM 48.2 °F 44.6 °F 87% 30.14 in 10.0 mi SSE 6.9 mph - N/A   Clear
4:55 AM 48.2 °F 44.6 °F 87% 30.15 in 10.0 mi SSE 6.9 mph - N/A   Clear
5:15 AM 48.2 °F 44.6 °F 87% 30.15 in 10.0 mi SSE 9.2 mph - N/A   Clear
5:35 AM 48.2 °F 44.6 °F 87% 30.15 in 10.0 mi SSE 9.2 mph - N/A   Partly Cloudy
5:55 AM 48.2 °F 44.6 °F 87% 30.15 in 10.0 mi SSE 10.4 mph - N/A   Partly Cloudy
6:15 AM 48.2 °F 44.6 °F 87% 30.15 in 10.0 mi SSE 8.1 mph - N/A   Partly Cloudy
6:35 AM 48.2 °F 46.4 °F 93% 30.16 in 10.0 mi South 5.8 mph - N/A   Scattered Clouds
6:55 AM 50.0 °F 46.4 °F 87% 30.16 in 10.0 mi SSE 5.8 mph - N/A   Partly Cloudy
7:15 AM 50.0 °F 46.4 °F 87% 30.16 in 10.0 mi SE 8.1 mph - N/A   Partly Cloudy
7:35 AM 51.8 °F 46.4 °F 82% 30.17 in 10.0 mi SSE 6.9 mph - N/A   Clear
7:55 AM 57.2 °F 48.2 °F 72% 30.17 in 10.0 mi SSE 5.8 mph - N/A   Clear
8:15 AM 59.0 °F 50.0 °F 72% 30.17 in 10.0 mi SSE 4.6 mph - N/A   Partly Cloudy
8:35 AM 64.4 °F 50.0 °F 59% 30.17 in 10.0 mi SSE 4.6 mph - N/A   Clear
8:55 AM 66.2 °F 48.2 °F 52% 30.18 in 10.0 mi Calm Calm - N/A   Clear
9:15 AM 68.0 °F 46.4 °F 46% 30.18 in 10.0 mi Calm Calm - N/A   Clear
9:35 AM 68.0 °F 46.4 °F 46% 30.19 in 10.0 mi West 3.5 mph - N/A   Clear
9:55 AM 68.0 °F 46.4 °F 46% 30.19 in 10.0 mi NNE 3.5 mph - N/A   Clear
10:15 AM 69.8 °F 46.4 °F 43% 30.19 in 10.0 mi WNW 3.5 mph - N/A   Clear
10:35 AM 69.8 °F 46.4 °F 43% 30.19 in 10.0 mi West 8.1 mph - N/A   Partly Cloudy
10:55 AM 69.8 °F 46.4 °F 43% 30.18 in 10.0 mi Calm Calm - N/A   Clear
11:15 AM 71.6 °F 46.4 °F 41% 30.18 in 10.0 mi WNW 5.8 mph - N/A   Scattered Clouds
11:35 AM 71.6 °F 46.4 °F 41% 30.18 in 10.0 mi WSW 6.9 mph - N/A   Scattered Clouds
11:55 AM 71.6 °F 48.2 °F 43% 30.18 in 10.0 mi NW 8.1 mph - N/A   Mostly Cloudy
12:15 PM 71.6 °F 46.4 °F 41% 30.17 in 10.0 mi WNW 3.5 mph - N/A   Scattered Clouds
12:35 PM 73.4 °F 44.6 °F 36% 30.16 in 10.0 mi West 11.5 mph - N/A   Scattered Clouds
12:55 PM 73.4 °F 46.4 °F 38% 30.16 in 10.0 mi WSW 10.4 mph - N/A   Partly Cloudy
1:15 PM 73.4 °F 46.4 °F 38% 30.15 in 10.0 mi West 8.1 mph - N/A   Clear
1:35 PM 73.4 °F 46.4 °F 38% 30.14 in 10.0 mi West 6.9 mph - N/A   Partly Cloudy
1:55 PM 73.4 °F 44.6 °F 36% 30.14 in 10.0 mi West 4.6 mph - N/A   Partly Cloudy
2:15 PM 75.2 °F 46.4 °F 36% 30.13 in 10.0 mi West 9.2 mph 16.1 mph N/A   Clear
2:35 PM 73.4 °F 46.4 °F 38% 30.13 in 10.0 mi West 12.7 mph 18.4 mph N/A   Scattered Clouds
2:55 PM 71.6 °F 46.4 °F 41% 30.13 in 10.0 mi West 6.9 mph - N/A   Scattered Clouds
3:15 PM 68.0 °F 48.2 °F 49% 30.14 in 9.0 mi West 17.3 mph 27.6 mph N/A   Mostly Cloudy
3:35 PM 64.4 °F 46.4 °F 52% 30.13 in 2.0 mi Calm Calm - 0.18 in   Overcast
3:55 PM 59.0 °F 50.0 °F 72% 30.14 in 10.0 mi SW 11.5 mph - 0.19 in   Mostly Cloudy
4:15 PM 59.0 °F 48.2 °F 67% 30.13 in 2.0 mi NNE 9.2 mph - 0.11 in   Overcast
4:35 PM 62.6 °F 48.2 °F 59% 30.13 in 10.0 mi SSE 4.6 mph - 0.16 in   Mostly Cloudy
4:55 PM 62.6 °F 55.4 °F 77% 30.13 in 10.0 mi SSE 4.6 mph - 0.17 in   Mostly Cloudy
5:15 PM 60.8 °F 50.0 °F 68% 30.14 in 6.0 mi West 4.6 mph - 0.02 in   Mostly Cloudy
5:35 PM 62.6 °F 51.8 °F 68% 30.13 in 10.0 mi WSW 4.6 mph - 0.02 in   Mostly Cloudy
5:55 PM 62.6 °F 53.6 °F 72% 30.12 in 10.0 mi Calm Calm - 0.02 in   Clear
6:15 PM 59.0 °F 55.4 °F 88% 30.12 in 10.0 mi SE 3.5 mph - N/A   Clear
6:35 PM 59.0 °F 55.4 °F 88% 30.13 in 10.0 mi SSE 5.8 mph - N/A   Scattered Clouds
6:55 PM 59.0 °F 55.4 °F 88% 30.14 in 10.0 mi SSE 8.1 mph - N/A   Overcast
7:15 PM 59.0 °F 57.2 °F 94% 30.15 in 10.0 mi SSE 4.6 mph - N/A   Overcast
7:35 PM 59.0 °F 55.4 °F 88% 30.16 in 10.0 mi SE 6.9 mph - N/A   Mostly Cloudy
7:55 PM 59.0 °F 53.6 °F 82% 30.17 in 10.0 mi SSE 6.9 mph - N/A   Mostly Cloudy
8:15 PM 59.0 °F 53.6 °F 82% 30.18 in 10.0 mi SSE 5.8 mph - N/A   Overcast
8:35 PM 59.0 °F 53.6 °F 82% 30.19 in 10.0 mi Calm Calm - N/A   Mostly Cloudy
8:55 PM 59.0 °F 53.6 °F 82% 30.19 in 10.0 mi Calm Calm - N/A   Scattered Clouds
9:15 PM 57.2 °F 51.8 °F 82% 30.19 in 10.0 mi SSE 5.8 mph - N/A   Clear
9:35 PM 55.4 °F 51.8 °F 88% 30.19 in 10.0 mi SSE 8.1 mph - N/A   Clear
9:55 PM 55.4 °F 51.8 °F 88% 30.19 in 10.0 mi SSE 6.9 mph - N/A   Clear
10:15 PM 55.4 °F 50.0 °F 82% 30.19 in 10.0 mi SSE 8.1 mph - N/A   Clear
10:35 PM 55.4 °F 50.0 °F 82% 30.19 in 10.0 mi SSE 8.1 mph - N/A   Clear
10:55 PM 53.6 °F 50.0 °F 88% 30.19 in 10.0 mi South 6.9 mph - N/A   Clear
11:15 PM 53.6 °F 50.0 °F 88% 30.19 in 10.0 mi SSE 6.9 mph - N/A   Clear
11:35 PM 51.8 °F 50.0 °F 94% 30.19 in 10.0 mi SSE 5.8 mph - N/A   Clear
11:55 PM 50.0 °F 48.2 °F 94% 30.19 in 10.0 mi SSE 6.9 mph - N/A   Clear